Terminal Aerodrome Forecast
Issued by NWS

Home | Current Version | Previous Version | Text Only | Print | Product List | Glossary On
Versions: 1 2 3 4 5 6 7 8 9 10 11 12 13 14 15 16 17
000
FTUS45 KSLC 292322
TAFLGU
TAF
KLGU 292322Z 3000/3024 VRB05KT P6SM BKN080
     FM300900 17010KT P6SM VCSH SCT040 BKN060
     FM301500 19011KT 6SM -SHRA SCT025 BKN040
     FM302200 31011KT 6SM -RA SCT015 BKN030=

USA.gov is the U.S. government's official web portal to all federal, state and local government web resources and services.